BEIDOU 6

Last updated on Jan. 15, 2021, 6:30 a.m. UTC

1 37210U 10057A   21014.84150204 -.00000119  00000-0  00000-0 0  9990
2 37210   0.8763  49.8519 0005857 191.1926 336.4346  1.00271796 37438
UTC
Height (km)
Latitude
Longitude
Inclination
Orbital Period
UTC large
Height (km)
Speed (km/s)
/
Latitude / Longitude
Inclination (degrees)
Orbital Period (minutes)
Azimuth
Elevation
Range (km)
Doppler Factor
iOS Compass Heading
iOS Angle

Next 30 passes for location: Hong Kong

Rise time Rise Azimuth (degrees) Set time Set Azimuth (degrees) Duration Max altitude (degrees)

No matching passes for this satellites